| time (UTC) | temp C | wind direction | speed KPH | gust KPH | rain 1hr cm | rain 24hr cm | rain mn cm | humidity % | barometer mb |
| 20260503224755 | 15 | 236 | 17.7 | 30.6 | 0.00 | 0.00 | 0.00 | 36 | 1009.6 |
| 20260503224253 | 15 | 228 | 17.7 | 27.4 | 0.00 | 0.00 | 0.00 | 36 | 1010.0 |
| 20260503223750 | 16 | 214 | 20.9 | 29.0 | 0.00 | 0.00 | 0.00 | 36 | 1009.9 |
| 20260503223248 | 15 | 210 | 16.1 | 33.8 | 0.00 | 0.00 | 0.00 | 35 | 1009.9 |
| 20260503222743 | 16 | 190 | 25.7 | 38.6 | 0.00 | 0.00 | 0.00 | 34 | 1009.9 |
| 20260503222242 | 16 | 215 | 17.7 | 35.4 | 0.00 | 0.00 | 0.00 | 35 | 1009.9 |
| 20260503221740 | 16 | 214 | 27.4 | 30.6 | 0.00 | 0.00 | 0.00 | 34 | 1009.9 |
| 20260503221237 | 16 | 256 | 32.2 | 37.0 | 0.00 | 0.00 | 0.00 | 34 | 1009.9 |
| 20260503220733 | 16 | 242 | 24.1 | 37.0 | 0.00 | 0.00 | 0.00 | 35 | 1009.8 |
| 20260503220231 | 15 | 213 | 16.1 | 27.4 | 0.00 | 0.00 | 0.00 | 36 | 1010.0 |
| 20260503215727 | 15 | 186 | 14.5 | 35.4 | 0.00 | 0.00 | 0.00 | 36 | 1010.1 |
| 20260503215224 | 16 | 210 | 19.3 | 27.4 | 0.00 | 0.00 | 0.00 | 34 | 1010.1 |
| 20260503214722 | 16 | 226 | 14.5 | 33.8 | 0.00 | 0.00 | 0.00 | 36 | 1009.9 |
| 20260503214219 | 16 | 223 | 16.1 | 17.7 | 0.00 | 0.00 | 0.00 | 37 | 1010.1 |
| 20260503213717 | 15 | 237 | 19.3 | 24.1 | 0.00 | 0.00 | 0.00 | 36 | 1010.1 |
| 20260503213214 | 16 | 239 | 22.5 | 25.7 | 0.00 | 0.00 | 0.00 | 34 | 1010.0 |
| 20260503212711 | 16 | 216 | 14.5 | 20.9 | 0.00 | 0.00 | 0.00 | 37 | 1010.0 |
| 20260503212208 | 16 | 235 | 16.1 | 20.9 | 0.00 | 0.00 | 0.00 | 36 | 1010.2 |
| 20260503211706 | 16 | 215 | 22.5 | 30.6 | 0.00 | 0.00 | 0.00 | 35 | 1010.1 |
| 20260503211201 | 16 | 218 | 20.9 | 37.0 | 0.00 | 0.00 | 0.00 | 36 | 1010.0 |
| 20260503210658 | 16 | 201 | 30.6 | 40.2 | 0.00 | 0.00 | 0.00 | 33 | 1010.1 |
| 20260503210155 | 16 | 252 | 22.5 | 25.7 | 0.00 | 0.00 | 0.00 | 34 | 1010.2 |
| 20260503205650 | 16 | 200 | 12.9 | 33.8 | 0.00 | 0.00 | 0.00 | 35 | 1010.4 |
| 20260503205147 | 16 | 214 | 25.7 | 29.0 | 0.00 | 0.00 | 0.00 | 33 | 1010.3 |
| 20260503204643 | 16 | 223 | 20.9 | 37.0 | 0.00 | 0.00 | 0.00 | 34 | 1010.2 |
| 20260503204141 | 16 | 239 | 24.1 | 30.6 | 0.00 | 0.00 | 0.00 | 34 | 1010.3 |
| 20260503203638 | 16 | 275 | 20.9 | 40.2 | 0.00 | 0.00 | 0.00 | 34 | 1010.5 |
| 20260503203136 | 16 | 221 | 24.1 | 30.6 | 0.00 | 0.00 | 0.00 | 33 | 1010.5 |
| 20260503202633 | 16 | 221 | 19.3 | 25.7 | 0.00 | 0.00 | 0.00 | 35 | 1010.5 |
| 20260503202131 | 16 | 212 | 19.3 | 41.8 | 0.00 | 0.00 | 0.00 | 35 | 1010.5 |
| 20260503201628 | 16 | 242 | 20.9 | 22.5 | 0.00 | 0.00 | 0.00 | 36 | 1010.5 |
| 20260503201126 | 15 | 223 | 19.3 | 33.8 | 0.00 | 0.00 | 0.00 | 34 | 1010.7 |
| 20260503200621 | 16 | 223 | 19.3 | 37.0 | 0.00 | 0.00 | 0.00 | 33 | 1010.7 |
| 20260503200118 | 16 | 249 | 27.4 | 43.5 | 0.00 | 0.00 | 0.00 | 34 | 1010.5 |
| 20260503195615 | 16 | 222 | 20.9 | 29.0 | 0.00 | 0.00 | 0.00 | 33 | 1010.8 |
| 20260503195112 | 16 | 243 | 24.1 | 37.0 | 0.00 | 0.00 | 0.00 | 34 | 1010.7 |
| 20260503194609 | 16 | 213 | 25.7 | 41.8 | 0.00 | 0.00 | 0.00 | 33 | 1010.7 |
| 20260503194104 | 16 | 236 | 24.1 | 35.4 | 0.00 | 0.00 | 0.00 | 35 | 1010.9 |
| 20260503193601 | 16 | 215 | 25.7 | 35.4 | 0.00 | 0.00 | 0.00 | 35 | 1011.0 |
| 20260503193056 | 16 | 248 | 25.7 | 30.6 | 0.00 | 0.00 | 0.00 | 32 | 1011.2 |
| 20260503192552 | 16 | 223 | 29.0 | 38.6 | 0.00 | 0.00 | 0.00 | 34 | 1011.0 |
| 20260503192048 | 16 | 220 | 17.7 | 25.7 | 0.00 | 0.00 | 0.00 | 36 | 1011.3 |
| 20260503191545 | 16 | 249 | 24.1 | 30.6 | 0.00 | 0.00 | 0.00 | 35 | 1011.4 |
| 20260503191042 | 16 | 175 | 20.9 | 29.0 | 0.00 | 0.00 | 0.00 | 33 | 1011.3 |
| 20260503190539 | 16 | 225 | 14.5 | 33.8 | 0.00 | 0.00 | 0.00 | 35 | 1011.6 |
| 20260503190037 | 16 | 233 | 19.3 | 29.0 | 0.00 | 0.00 | 0.00 | 34 | 1011.4 |
| 20260503185533 | 16 | 241 | 30.6 | 40.2 | 0.00 | 0.00 | 0.00 | 33 | 1011.4 |
| 20260503185032 | 16 | 207 | 19.3 | 24.1 | 0.00 | 0.00 | 0.00 | 34 | 1011.9 |
| 20260503184529 | 16 | 236 | 17.7 | 33.8 | 0.00 | 0.00 | 0.00 | 35 | 1011.8 |
| 20260503184026 | 16 | 192 | 17.7 | 27.4 | 0.00 | 0.00 | 0.00 | 36 | 1011.8 |
| 20260503183522 | 16 | 237 | 27.4 | 46.7 | 0.00 | 0.00 | 0.00 | 34 | 1012.0 |
| 20260503183019 | 16 | 245 | 24.1 | 29.0 | 0.00 | 0.00 | 0.00 | 36 | 1011.8 |
| 20260503182518 | 16 | 275 | 12.9 | 33.8 | 0.00 | 0.00 | 0.00 | 37 | 1011.9 |
| 20260503182015 | 16 | 225 | 14.5 | 17.7 | 0.00 | 0.00 | 0.00 | 36 | 1011.8 |
| 20260503181512 | 16 | 182 | 29.0 | 33.8 | 0.00 | 0.00 | 0.00 | 35 | 1012.0 |
| 20260503181008 | 16 | 248 | 29.0 | 38.6 | 0.00 | 0.00 | 0.00 | 36 | 1011.9 |
| 20260503180506 | 15 | 214 | 16.1 | 33.8 | 0.00 | 0.00 | 0.00 | 37 | 1012.1 |
| 20260503180003 | 16 | 269 | 27.4 | 30.6 | 0.00 | 0.00 | 0.00 | 34 | 1012.1 |
| 20260503175501 | 15 | 202 | 14.5 | 22.5 | 0.00 | 0.00 | 0.00 | 37 | 1012.2 |
| 20260503174956 | 15 | 207 | 14.5 | 22.5 | 0.00 | 0.00 | 0.00 | 38 | 1012.4 |
| 20260503174455 | 16 | 252 | 22.5 | 27.4 | 0.00 | 0.00 | 0.00 | 36 | 1012.3 |
| 20260503173950 | 15 | 201 | 16.1 | 20.9 | 0.00 | 0.00 | 0.00 | 35 | 1012.3 |
| 20260503173446 | 15 | 266 | 19.3 | 22.5 | 0.00 | 0.00 | 0.00 | 37 | 1012.6 |
| 20260503172943 | 15 | 220 | 37.0 | 40.2 | 0.00 | 0.00 | 0.00 | 34 | 1012.8 |
| 20260503172440 | 15 | 233 | 25.7 | 33.8 | 0.00 | 0.00 | 0.00 | 37 | 1012.6 |
| 20260503171937 | 15 | 255 | 22.5 | 29.0 | 0.00 | 0.00 | 0.00 | 41 | 1012.8 |
| 20260503171433 | 15 | 242 | 20.9 | 25.7 | 0.00 | 0.00 | 0.00 | 40 | 1012.7 |
| 20260503170931 | 15 | 291 | 14.5 | 22.5 | 0.00 | 0.00 | 0.00 | 44 | 1012.9 |
| 20260503170427 | 15 | 245 | 22.5 | 25.7 | 0.00 | 0.00 | 0.00 | 41 | 1012.9 |
| 20260503150819 | 12 | 220 | 24.1 | 27.4 | 0.00 | 0.00 | 0.00 | 47 | 1014.1 |
| 20260503150315 | 12 | 233 | 14.5 | 24.1 | 0.00 | 0.00 | 0.00 | 48 | 1014.0 |
| 20260503140240 | 10 | 220 | 16.1 | 25.7 | 0.00 | 0.00 | 0.00 | 50 | 1014.2 |
| 20260503131209 | 8 | 240 | 14.5 | 29.0 | 0.00 | 0.00 | 0.00 | 54 | 1014.2 |
| 20260503130707 | 8 | 221 | 11.3 | 25.7 | 0.00 | 0.00 | 0.00 | 53 | 1014.3 |
| 20260503130204 | 8 | 196 | 12.9 | 17.7 | 0.00 | 0.00 | 0.00 | 55 | 1014.5 |
| 20260503120130 | 5 | 222 | 9.7 | 16.1 | 0.00 | 0.00 | 0.00 | 63 | 1014.8 |
| 20260503110557 | 2 | 197 | 3.2 | 4.8 | 0.00 | 0.00 | 0.00 | 73 | 1014.4 |
| 20260503090444 | 2 | 191 | 6.4 | 11.3 | 0.00 | 0.00 | 0.00 | 74 | 1014.4 |
| 20260503081410 | 2 | 216 | 8.0 | 9.7 | 0.00 | 0.00 | 0.00 | 73 | 1014.4 |
| 20260503080907 | 2 | 200 | 4.8 | 6.4 | 0.00 | 0.00 | 0.00 | 73 | 1014.5 |
| 20260503080404 | 3 | 211 | 4.8 | 6.4 | 0.00 | 0.00 | 0.00 | 72 | 1014.4 |
| 20260503072840 | 3 | 211 | 8.0 | 9.7 | 0.00 | 0.00 | 0.00 | 69 | 1014.5 |
| 20260503072337 | 3 | 215 | 6.4 | 9.7 | 0.00 | 0.00 | 0.00 | 69 | 1014.4 |
| 20260503071833 | 3 | 205 | 3.2 | 9.7 | 0.00 | 0.00 | 0.00 | 69 | 1014.4 |
| 20260503071331 | 3 | 210 | 8.0 | 9.7 | 0.00 | 0.00 | 0.00 | 68 | 1014.4 |
| 20260503070827 | 3 | 220 | 9.7 | 11.3 | 0.00 | 0.00 | 0.00 | 68 | 1014.8 |
| 20260503070326 | 3 | 218 | 3.2 | 6.4 | 0.00 | 0.00 | 0.00 | 69 | 1014.6 |
| 20260503060250 | 3 | 191 | 3.2 | 6.4 | 0.00 | 0.00 | 0.00 | 68 | 1015.0 |
| 20260503054737 | 4 | 200 | 3.2 | 6.4 | 0.00 | 0.00 | 0.00 | 68 | 1014.9 |
| 20260503054234 | 4 | 208 | 3.2 | 4.8 | 0.00 | 0.00 | 0.00 | 68 | 1014.9 |
| 20260503053732 | 3 | 198 | 4.8 | 6.4 | 0.00 | 0.00 | 0.00 | 69 | 1014.9 |
| 20260503053231 | 3 | 206 | 4.8 | 4.8 | 0.00 | 0.00 | 0.00 | 70 | 1014.9 |
| 20260503052726 | 4 | 192 | 4.8 | 6.4 | 0.00 | 0.00 | 0.00 | 70 | 1014.8 |
| 20260503052223 | 4 | 208 | 4.8 | 6.4 | 0.00 | 0.00 | 0.00 | 70 | 1015.0 |
| 20260503051718 | 4 | 202 | 1.6 | 4.8 | 0.00 | 0.00 | 0.00 | 70 | 1015.0 |
| 20260503051217 | 4 | 203 | 3.2 | 4.8 | 0.00 | 0.00 | 0.00 | 70 | 1014.9 |
| 20260503050713 | 4 | 216 | 4.8 | 6.4 | 0.00 | 0.00 | 0.00 | 71 | 1015.0 |
| 20260503050209 | 4 | 213 | 3.2 | 4.8 | 0.00 | 0.00 | 0.00 | 71 | 1014.9 |
| 20260503045707 | 4 | 194 | 3.2 | 4.8 | 0.00 | 0.00 | 0.00 | 70 | 1014.9 |
| 20260503045204 | 4 | 180 | 3.2 | 4.8 | 0.00 | 0.00 | 0.00 | 70 | 1015.2 |
| 20260503044700 | 5 | 200 | 3.2 | 4.8 | 0.00 | 0.00 | 0.00 | 70 | 1015.2 |
| 20260503044158 | 5 | 212 | 3.2 | 4.8 | 0.00 | 0.00 | 0.00 | 69 | 1015.2 |
| 20260503043654 | 5 | 207 | 3.2 | 6.4 | 0.00 | 0.00 | 0.00 | 68 | 1014.9 |
| 20260503043152 | 5 | 212 | 3.2 | 3.2 | 0.00 | 0.00 | 0.00 | 68 | 1014.9 |
| 20260503042648 | 5 | 203 | 4.8 | 4.8 | 0.00 | 0.00 | 0.00 | 68 | 1015.0 |
| 20260503042144 | 5 | 211 | 3.2 | 6.4 | 0.00 | 0.00 | 0.00 | 67 | 1015.0 |
| 20260503041641 | 5 | 219 | 4.8 | 6.4 | 0.00 | 0.00 | 0.00 | 67 | 1015.0 |
| 20260503041139 | 5 | 234 | 8.0 | 11.3 | 0.00 | 0.00 | 0.00 | 68 | 1015.1 |
| 20260503040636 | 5 | 227 | 6.4 | 9.7 | 0.00 | 0.00 | 0.00 | 68 | 1014.9 |
| 20260503040133 | 5 | 228 | 6.4 | 6.4 | 0.00 | 0.00 | 0.00 | 69 | 1015.1 |
| 20260503035629 | 5 | 225 | 6.4 | 6.4 | 0.00 | 0.46 | 0.46 | 69 | 1015.0 |
| 20260503035127 | 5 | 217 | 4.8 | 6.4 | 0.00 | 0.46 | 0.46 | 70 | 1015.3 |
| 20260503034625 | 5 | 190 | 3.2 | 3.2 | 0.00 | 0.46 | 0.46 | 69 | 1015.0 |
| 20260503034122 | 5 | 203 | 3.2 | 4.8 | 0.00 | 0.46 | 0.46 | 69 | 1015.2 |
| 20260503033619 | 5 | 183 | 3.2 | 4.8 | 0.00 | 0.46 | 0.46 | 68 | 1015.2 |
| 20260503033116 | 5 | 178 | 3.2 | 4.8 | 0.00 | 0.46 | 0.46 | 68 | 1015.2 |
| 20260503032615 | 5 | 184 | 3.2 | 3.2 | 0.00 | 0.46 | 0.46 | 68 | 1015.0 |
| 20260503032113 | 5 | 184 | 1.6 | 3.2 | 0.00 | 0.46 | 0.46 | 67 | 1015.2 |
| 20260503031610 | 5 | 185 | 1.6 | 3.2 | 0.00 | 0.46 | 0.46 | 67 | 1015.0 |
| 20260503031108 | 6 | 185 | 3.2 | 4.8 | 0.00 | 0.46 | 0.46 | 67 | 1015.3 |
| 20260503030603 | 6 | 194 | 3.2 | 4.8 | 0.00 | 0.46 | 0.46 | 67 | 1015.2 |
| 20260503030100 | 6 | 197 | 3.2 | 3.2 | 0.00 | 0.46 | 0.46 | 66 | 1015.3 |
| 20260503025557 | 6 | 199 | 3.2 | 3.2 | 0.00 | 0.46 | 0.46 | 66 | 1015.3 |
| 20260503025055 | 6 | 200 | 1.6 | 3.2 | 0.00 | 0.46 | 0.46 | 66 | 1015.4 |
| 20260503024550 | 6 | 178 | 3.2 | 3.2 | 0.00 | 0.46 | 0.46 | 65 | 1015.3 |
| 20260503024048 | 6 | 168 | 4.8 | 4.8 | 0.00 | 0.46 | 0.46 | 65 | 1015.6 |
| 20260503023544 | 6 | 195 | 3.2 | 3.2 | 0.00 | 0.46 | 0.46 | 65 | 1015.5 |
| 20260503023042 | 6 | 195 | 3.2 | 4.8 | 0.00 | 0.46 | 0.46 | 64 | 1015.3 |
| 20260503022538 | 6 | 195 | 3.2 | 4.8 | 0.00 | 0.46 | 0.46 | 64 | 1015.4 |
| 20260503022033 | 6 | 184 | 3.2 | 4.8 | 0.00 | 0.46 | 0.46 | 64 | 1015.4 |
| 20260503021530 | 6 | 184 | 4.8 | 4.8 | 0.00 | 0.46 | 0.46 | 63 | 1015.5 |
| 20260503021027 | 6 | 177 | 3.2 | 3.2 | 0.00 | 0.46 | 0.46 | 64 | 1015.3 |
| 20260503020524 | 6 | 178 | 1.6 | 3.2 | 0.00 | 0.46 | 0.46 | 63 | 1015.4 |
| 20260503020021 | 6 | 173 | 1.6 | 3.2 | 0.00 | 0.46 | 0.46 | 65 | 1015.4 |
| 20260503015518 | 6 | 172 | 1.6 | 3.2 | 0.00 | 0.46 | 0.46 | 66 | 1015.3 |
| 20260503015015 | 6 | 172 | 3.2 | 3.2 | 0.00 | 0.46 | 0.46 | 66 | 1015.2 |
| 20260503014511 | 6 | 183 | 3.2 | 3.2 | 0.00 | 0.46 | 0.46 | 65 | 1015.3 |
| 20260503014009 | 6 | 183 | 3.2 | 3.2 | 0.00 | 0.46 | 0.46 | 65 | 1015.3 |
| 20260503013506 | 6 | 183 | 3.2 | 3.2 | 0.00 | 0.46 | 0.46 | 64 | 1015.4 |
| 20260503013003 | 6 | 191 | 1.6 | 1.6 | 0.00 | 0.46 | 0.46 | 62 | 1015.3 |
| 20260503012501 | 6 | 192 | 3.2 | 3.2 | 0.00 | 0.46 | 0.46 | 62 | 1015.4 |
| 20260503011956 | 6 | 193 | 3.2 | 1.6 | 0.00 | 0.46 | 0.46 | 61 | 1015.3 |
| 20260503011454 | 6 | 193 | 1.6 | 3.2 | 0.00 | 0.46 | 0.46 | 62 | 1015.3 |
| 20260503010951 | 6 | 198 | 1.6 | 3.2 | 0.00 | 0.46 | 0.46 | 62 | 1015.3 |
| 20260503010447 | 6 | 198 | 1.6 | 3.2 | 0.00 | 0.46 | 0.46 | 62 | 1015.5 |
| 20260503005944 | 6 | 198 | 1.6 | 3.2 | 0.00 | 0.46 | 0.46 | 62 | 1015.1 |
| 20260503005442 | 6 | 198 | 1.6 | 1.6 | 0.00 | 0.46 | 0.46 | 61 | 1015.1 |
| 20260503004938 | 6 | 198 | 4.8 | 4.8 | 0.00 | 0.46 | 0.46 | 60 | 1015.1 |
| 20260503004435 | 6 | 198 | 3.2 | 3.2 | 0.00 | 0.46 | 0.46 | 59 | 1015.1 |
| 20260503003933 | 6 | 198 | 3.2 | 3.2 | 0.00 | 0.46 | 0.46 | 58 | 1015.2 |
| 20260503003429 | 6 | 198 | 1.6 | 3.2 | 0.00 | 0.46 | 0.46 | 57 | 1015.1 |
| 20260503002927 | 6 | 197 | 3.2 | 3.2 | 0.00 | 0.46 | 0.46 | 56 | 1015.1 |
| 20260503002424 | 6 | 198 | 1.6 | 3.2 | 0.00 | 0.46 | 0.46 | 55 | 1015.0 |
| 20260503001920 | 6 | 198 | 3.2 | 3.2 | 0.00 | 0.46 | 0.46 | 55 | 1015.0 |
| 20260503001416 | 6 | 198 | 3.2 | 3.2 | 0.00 | 0.46 | 0.46 | 54 | 1015.0 |
| 20260503000914 | 7 | 198 | 3.2 | 3.2 | 0.00 | 0.46 | 0.46 | 55 | 1014.9 |
| 20260503000411 | 7 | 198 | 1.6 | 3.2 | 0.00 | 0.46 | 0.46 | 54 | 1015.0 |
| 20260502235908 | 7 | 198 | 1.6 | 1.6 | 0.00 | 0.46 | 0.46 | 55 | 1015.1 |
| 20260502235405 | 7 | 198 | 1.6 | 1.6 | 0.00 | 0.46 | 0.46 | 57 | 1015.0 |
| 20260502234903 | 7 | 198 | 3.2 | 3.2 | 0.00 | 0.46 | 0.46 | 57 | 1015.1 |
| 20260502234359 | 7 | 198 | 1.6 | 1.6 | 0.00 | 0.46 | 0.46 | 57 | 1015.0 |
| 20260502233856 | 7 | 198 | 1.6 | 3.2 | 0.00 | 0.46 | 0.46 | 55 | 1015.2 |
| 20260502233352 | 7 | 198 | 1.6 | 1.6 | 0.00 | 0.46 | 0.46 | 58 | 1015.1 |
| 20260502232849 | 7 | 198 | 0.0 | 1.6 | 0.00 | 0.46 | 0.46 | 53 | 1015.2 |
| 20260502232345 | 7 | 198 | 0.0 | 1.6 | 0.00 | 0.46 | 0.46 | 53 | 1014.8 |
| 20260502231842 | 7 | 198 | 1.6 | 3.2 | 0.00 | 0.46 | 0.46 | 55 | 1015.1 |
| 20260502231340 | 7 | 199 | 1.6 | 3.2 | 0.00 | 0.46 | 0.46 | 59 | 1015.0 |
| 20260502230838 | 7 | 199 | 0.0 | 0.0 | 0.00 | 0.46 | 0.46 | 54 | 1015.1 |
| 20260502230336 | 7 | 199 | 0.0 | 1.6 | 0.00 | 0.46 | 0.46 | 50 | 1015.0 |
| 20260502225832 | 7 | 199 | 0.0 | 1.6 | 0.00 | 0.46 | 0.46 | 50 | 1015.1 |
| 20260502225329 | 7 | 199 | 0.0 | 0.0 | 0.00 | 0.46 | 0.46 | 48 | 1015.1 |